This is the latest recevied weather packets stored in our database for station/object DH9SB-6. If no packets are shown the sender has not sent any weather packets the latest 10 day(s).
| Time | Temp. | Humidity | Pressure | Rain* | Wind** | Luminosity | Snow |
|---|---|---|---|---|---|---|---|
| 1787996554 | 23.89° C | 48% | - | 0 mm | - | - | - |
| 1787995978 | 23.89° C | 49% | - | 0 mm | - | - | - |
| 1787995353 | 23.89° C | 50% | - | 0 mm | - | - | - |
| 1787994777 | 24.44° C | 50% | - | 0 mm | - | - | - |
| 1787994155 | 23.89° C | 50% | - | 0 mm | - | - | - |
| 1787993577 | 24.44° C | 50% | - | 0 mm | - | - | - |
| 1787993052 | 23.89° C | 51% | - | 0 mm | - | - | - |
| 1787992379 | 23.33° C | 52% | - | 0 mm | - | - | - |
| 1787991754 | 23.33° C | 51% | - | 0 mm | - | - | - |
| 1787991178 | 25° C | 49% | - | 0 mm | - | - | - |
| 1787990554 | 25° C | 50% | - | 0 mm | - | - | - |
| 1787989978 | 25° C | 50% | - | 0 mm | - | - | - |
| 1787989355 | 25° C | 51% | - | 0 mm | - | - | - |
| 1787988778 | 25.56° C | 52% | - | 0 mm | - | - | - |
| 1787988154 | 25° C | 53% | - | 0 mm | - | - | - |
| 1787987579 | 23.89° C | 57% | - | 0 mm | - | - | - |
| 1787986954 | 23.33° C | 59% | - | 0 mm | - | - | - |
| 1787986378 | 22.22° C | 64% | - | 0 mm | - | - | - |
| 1787985755 | 21.67° C | 65% | - | 0 mm | - | - | - |
| 1787985178 | 20.56° C | 73% | - | 0 mm | - | - | - |
| 1787984555 | 17.78° C | 77% | - | 0 mm | - | - | - |
| 1787983978 | 17.22° C | 83% | - | 0 mm | - | - | - |
| 1787983354 | 17.22° C | 84% | - | 0 mm | - | - | - |
| 1787982778 | 16.67° C | 86% | - | 0 mm | - | - | - |
| 1787982154 | 16.11° C | 86% | - | 0 mm | - | - | - |
* Rain latest hour (hover to see other rain measurements)
** Current wind speed in m/s (hover to see current wind gust speed)